{"data":{"norad_id":65682,"epoch":"2026-09-20T05:11:30.111072Z","epoch_age_seconds":133034,"freshness":"FRESH","line1":"1 65682U 25212G   26263.21632073  .00013840  00000+0  41981-3 0  9993","line2":"2 65682  53.1575 157.3541 0001081  93.6202 266.4924 15.34413366 57048","mean_motion":15.34413366,"eccentricity":0.0001081,"inclination_deg":53.1575,"raan_deg":157.3541,"arg_perigee_deg":93.6202,"mean_anomaly_deg":266.4924,"bstar":0.00041981,"rev_number":5704,"period_min":93.846940590323,"perigee_km":461.92402339117,"apogee_km":463.40300446228,"semimajor_km":6840.8005139267,"source":"CELESTRAK","updated_at":"2026-09-21T09:00:35.685682Z"}}